GFSSW_con_sbcape_162.txt.gz
CAPE
9 9 12 6 14 9 8 13 19 8 17 14 26 44 30 38 54 3 0 0 0 0 0 0 0 0 0 0 0 0 0 0 0 0 0 0 0 0 845 716 1056 1240 427 361 343
10 11 10 5 12 18 24 24 20 26 9 20 14 17 44 48 3 0 0 0 0 0 0 0 0 0 0 0 0 0 0 0 0 0 0 0 0 0 555 1451 1104 820 632 741 244
8 8 9 9 12 14 21 26 29 22 22 25 15 1 20 53 0 0 0 0 29 0 0 0 0 0 0 0 0 0 0 0 0 0 0 0 0 0 130 738 1071 799 694 519 294
6 11 17 8 14 22 20 24 35 42 40 34 31 23 19 18 0 0 0 0 0 0 0 0 0 0 0 0 0 0 0 0 0 0 0 0 0 0 0 0 1042 682 673 494 325
11 7 12 11 20 20 27 40 47 47 43 46 46 31 15 8 0 0 0 0 0 0 0 0 0 0 0 0 0 0 0 0 0 0 0 0 0 0 0 0 1072 523 354 329 165
9 6 9 14 17 27 40 48 45 39 42 42 41 33 21 1 0 0 0 0 0 0 0 0 0 0 0 0 0 0 0 0 0 0 0 0 0 0 0 0 834 547 260 69 3
22 9 8 10 8 7 16 25 18 11 29 34 34 16 6 0 0 0 0 0 0 0 0 0 0 0 0 0 0 0 0 0 0 0 0 0 0 0 0 0 714 731 306 147 114
19 20 7 4 5 9 11 5 2 5 6 21 27 12 0 0 0 0 0 0 0 0 0 0 0 0 0 0 0 0 0 0 0 0 0 0 0 0 0 0 231 542 374 357 274
15 14 8 5 5 4 2 0 0 0 2 4 3 1 0 0 0 0 0 0 0 0 0 0 0 3 0 0 0 0 0 0 0 0 0 0 0 0 0 0 703 651 533 339 83
14 12 10 4 2 2 3 0 0 0 0 0 0 0 0 0 0 11 0 0 0 3 38 0 7 45 0 0 0 0 0 0 0 0 0 0 0 0 0 0 412 993 67 17 24
10 11 8 4 2 1 0 0 0 0 0 0 0 0 0 0 10 22 81 0 0 27 60 46 22 16 0 0 0 0 0 0 0 0 0 0 0 0 0 0 130 541 51 10 0
6 9 7 4 1 0 0 0 0 0 0 0 0 0 0 0 8 19 37 0 0 0 0 0 3 6 0 6 0 0 0 0 0 0 0 0 0 0 0 0 0 76 147 206 193
6 8 6 3 0 0 0 0 0 0 0 0 0 0 0 1 4 17 9 2 0 11 0 0 1 2 2 2 0 0 0 0 0 0 0 0 0 0 0 435 373 197 142 349 361
4 5 4 3 0 0 0 0 0 0 0 0 0 0 1 0 12 43 154 148 58 0 0 3 2 9 0 0 0 0 0 0 0 0 0 0 0 0 0 366 517 246 277 323 313
2 4 2 1 0 0 0 0 0 0 0 0 0 0 0 0 1 13 34 68 48 69 3 19 18 0 0 0 0 0 0 0 0 0 0 0 0 0 0 331 587 351 257 232 286
1 1 3 0 0 0 0 0 0 0 0 0 0 0 10 9 0 0 7 22 6 43 1 2 2 0 0 0 0 0 0 0 0 0 0 0 0 0 0 0 395 442 294 136 74
0 0 0 0 0 0 0 0 0 1 3 0 0 0 0 9 1 0 0 2 11 17 0 0 0 0 0 0 0 0 0 0 0 0 0 0 0 0 0 0 128 235 257 60 42
0 0 0 0 0 0 0 0 0 2 9 2 3 0 0 0 0 0 0 0 0 0 0 0 0 0 0 0 0 0 0 0 0 0 0 0 0 0 0 0 85 146 105 3 47
0 0 0 0 0 0 0 0 2 15 7 8 0 4 0 0 0 0 0 0 0 0 0 0 0 0 0 0 0 0 0 0 0 0 0 0 0 0 0 0 188 133 13 2 11
0 0 0 0 0 0 0 0 1 18 17 7 12 8 7 9 0 0 0 0 2 2 0 0 11 0 0 0 0 0 0 0 0 1 0 0 0 0 0 0 0 180 55 0 34
0 0 0 0 0 0 0 0 0 1 20 17 18 19 27 15 7 0 0 24 60 23 0 0 3 0 0 0 0 0 0 0 0 0 0 0 0 0 0 0 0 273 162 22 58
0 0 0 0 0 0 0 0 0 1 0 3 17 16 20 17 30 8 0 49 70 12 0 0 2 0 0 0 0 0 0 0 0 0 0 3 0 2 0 0 20 172 205 123 63
0 0 0 0 0 0 0 0 3 4 0 3 8 14 24 2 16 21 91 45 29 14 2 10 14 0 0 0 0 0 0 0 0 0 0 6 17 25 204 58 104 252 237 179 50
0 0 0 0 0 0 0 0 0 6 5 0 11 2 0 1 41 113 19 68 49 25 476 86 0 0 0 0 0 0 0 1 0 0 0 0 7 30 625 469 333 231 200 105 46
0 0 0 0 0 0 0 0 0 0 4 0 1 5 0 15 7 2 4 0 64 148 57 1 109 195 127 0 0 0 0 1 4 1 0 0 0 371 421 241 190 113 142 56 3
0 0 0 0 0 0 0 0 0 0 0 7 7 0 5 7 12 10 2 1 5 2 0 46 63 82 25 29 0 0 0 0 7 0 0 86 258 370 275 174 172 80 52 2 2
0 0 0 0 0 0 0 0 0 0 0 1 5 0 5 0 0 0 0 0 0 0 1 36 62 35 32 66 36 0 0 0 38 4 7 5 78 103 7 3 1 2 0 2 0

GFSSW_con_sbcape_165.txt.gz
CAPE
10 10 8 14 18 24 26 18 16 14 4 4 10 20 18 26 38 0 0 0 0 0 0 0 0 0 0 0 0 0 0 0 0 0 0 0 0 0 418 588 1120 244 172 346 50
6 10 6 16 14 18 20 22 20 20 22 18 8 10 12 10 2 0 0 0 0 0 0 0 0 0 0 0 0 0 0 0 0 0 0 0 0 0 58 1074 998 680 508 348 92
4 10 12 10 16 22 20 24 26 40 38 36 30 20 14 4 0 0 0 2 0 0 0 0 0 0 0 0 0 0 0 0 0 0 0 0 0 0 0 836 908 672 508 432 112
10 8 6 8 20 24 26 32 40 40 38 40 48 30 12 2 0 0 0 0 0 0 0 0 0 0 0 0 0 0 0 0 0 0 0 0 0 0 0 0 282 716 416 406 182
6 10 6 8 20 24 30 28 26 28 32 32 36 42 2 0 0 0 0 0 0 0 0 0 0 0 0 0 0 0 0 0 0 0 0 0 0 0 0 0 0 94 388 530 252
4 8 4 8 12 16 20 22 8 6 12 28 32 24 0 0 0 0 0 0 0 0 0 0 0 0 0 0 0 0 0 0 0 0 0 0 0 0 0 0 0 640 586 578 262
4 2 2 2 6 2 6 8 2 2 6 8 20 10 2 0 0 0 0 0 0 0 0 0 0 0 0 0 0 0 0 0 0 0 0 0 0 0 0 0 0 528 594 410 222
8 4 2 2 2 2 4 2 2 0 2 6 8 4 0 0 0 0 0 0 0 0 0 0 0 0 0 0 0 0 0 0 0 0 0 0 0 0 0 0 0 546 534 240 302
14 12 4 4 4 4 2 2 0 0 0 0 0 0 0 0 0 0 0 0 0 0 0 0 0 0 0 0 0 0 0 0 0 0 0 0 0 0 0 0 0 116 664 472 430
14 10 10 4 4 2 4 0 0 0 0 0 0 0 0 0 0 0 0 0 0 0 56 40 0 4 0 0 0 0 0 0 0 0 0 0 0 0 0 0 0 548 610 552 290
6 6 8 6 4 2 0 0 0 0 0 0 0 0 0 0 0 0 0 0 0 40 54 46 22 0 0 0 0 0 0 0 0 0 0 0 0 0 0 0 0 678 586 392 268
4 6 8 4 2 2 0 0 0 0 0 0 0 0 0 0 0 2 0 2 20 26 40 36 6 12 14 24 2 0 0 0 0 0 0 0 0 0 0 0 82 722 80 52 70
6 8 4 4 0 0 0 0 0 0 0 0 0 0 0 0 0 4 6 0 2 60 68 10 28 32 10 22 6 0 0 0 0 0 0 0 0 0 2 332 4 380 166 92 94
6 8 4 4 0 0 0 0 0 0 0 0 0 0 0 0 8 10 94 96 38 0 10 0 2 8 20 10 0 0 0 0 0 0 0 0 0 0 0 348 316 206 352 238 262
2 6 4 2 0 0 0 0 0 0 0 0 0 0 0 0 8 0 4 64 56 42 10 0 44 18 10 8 6 0 0 0 0 0 0 0 0 0 0 102 298 304 206 412 458
0 2 4 0 0 0 0 0 0 0 0 0 0 0 0 0 0 0 0 14 18 86 46 0 0 0 0 0 2 0 0 0 0 0 0 0 0 0 0 0 110 284 240 314 364
0 0 0 0 0 0 0 0 0 0 0 0 0 0 0 0 0 0 0 0 12 2 0 0 0 0 0 0 0 0 0 0 0 0 0 0 0 0 0 0 60 454 378 240 214
0 0 0 0 0 0 0 0 0 4 10 0 0 0 0 0 0 0 0 0 0 0 0 0 0 0 0 0 0 0 0 0 0 0 0 0 0 0 0 0 2 486 586 356 86
0 0 0 0 0 0 0 0 0 0 6 2 0 4 10 18 0 0 0 0 0 0 0 0 0 0 0 0 0 0 0 0 0 0 0 0 0 0 0 0 20 452 302 342 102
0 0 0 0 0 0 0 0 0 2 2 16 10 34 16 2 0 0 0 0 0 0 0 0 0 0 0 0 0 0 0 0 0 0 0 0 0 0 0 0 54 106 180 132 36
0 0 0 0 0 0 0 0 0 2 20 20 14 10 18 36 10 0 0 0 0 12 0 0 0 0 0 0 0 0 0 0 0 0 0 0 0 0 0 0 0 14 6 2 0
0 0 0 0 0 0 0 0 0 4 10 14 32 46 44 10 4 66 0 4 32 0 0 0 0 0 0 0 0 0 0 0 0 0 0 0 0 0 62 66 0 0 0 0 0
0 0 0 0 0 0 0 0 0 6 4 18 18 38 32 2 14 6 76 76 6 12 0 4 12 0 0 0 0 0 0 0 0 0 0 0 0 0 238 130 4 0 0 0 0
0 0 0 0 0 0 0 0 0 0 8 28 28 36 28 0 44 8 8 2 0 54 518 14 0 0 0 0 0 0 0 0 0 0 0 0 0 0 180 54 12 0 4 18 6
0 0 0 0 0 0 0 0 0 0 0 8 12 18 14 8 0 10 2 0 0 2 0 0 26 76 92 6 0 0 0 4 0 0 4 0 0 432 198 174 74 114 284 490 520
0 0 0 0 0 0 0 0 0 0 0 0 22 2 6 22 18 14 0 0 0 0 0 0 16 38 18 12 0 0 0 0 2 8 18 150 164 408 238 106 140 8 262 230 118
0 0 0 0 0 0 0 0 0 0 0 0 8 8 0 18 0 0 0 0 0 0 0 2 10 2 26 30 0 0 0 0 2 2 6 22 228 66 4 2 6 4 0 2 2

GFSSW_con_sbcape_168.txt.gz
CAPE
4 4 4 8 15 18 21 21 19 26 28 31 17 7 9 13 14 0 0 0 0 0 0 0 0 0 0 0 0 0 0 0 0 0 0 0 0 0 3 147 831 110 310 290 50
8 9 6 11 15 21 23 25 24 28 24 33 29 31 13 14 0 0 0 0 1 0 0 0 0 0 0 0 0 0 0 0 0 0 0 0 0 0 28 742 676 590 338 74 250
7 9 7 5 18 18 24 21 23 21 21 34 26 22 8 0 0 0 0 10 1 0 0 0 0 0 0 0 0 0 0 0 0 0 0 0 0 0 0 109 698 606 349 64 213
3 3 9 11 14 19 19 19 13 17 15 23 22 24 5 0 0 0 0 0 0 0 0 0 0 0 0 0 0 0 0 0 0 0 0 0 0 0 0 0 0 0 240 115 125
3 4 6 8 10 10 11 11 14 5 9 6 20 25 0 0 0 0 0 0 0 0 0 0 0 0 0 0 0 0 0 0 0 0 0 0 0 0 0 0 0 0 2 340 129
3 3 3 5 2 5 6 6 9 5 3 3 21 1 0 0 0 0 0 0 0 0 0 0 0 0 0 0 0 0 0 0 0 0 0 0 0 0 0 0 0 0 131 402 187
6 2 2 2 3 1 3 1 3 8 4 1 11 0 0 0 0 0 0 0 0 0 0 0 0 0 0 0 0 0 0 0 0 0 0 0 0 0 0 0 0 0 466 227 205
17 3 5 2 1 3 1 0 0 4 0 0 8 0 0 0 0 0 0 0 0 0 0 0 0 0 0 0 0 0 0 0 0 0 0 0 0 0 0 0 0 0 455 366 594
14 3 2 1 2 3 4 3 1 0 0 0 0 0 0 0 0 0 0 0 0 0 0 0 0 0 0 0 0 0 0 0 0 0 0 0 0 0 0 0 0 0 401 339 696
12 3 2 3 3 3 4 0 0 0 1 0 0 0 0 0 0 0 0 0 0 0 0 0 1 0 0 18 1 1 0 0 0 0 0 0 0 0 0 0 0 0 245 462 584
7 5 3 8 3 6 0 0 0 0 1 0 0 0 0 0 0 0 0 0 0 10 36 17 2 0 0 5 17 27 0 0 0 0 0 0 0 0 0 0 0 0 403 481 479
3 5 7 4 3 2 0 0 0 0 0 0 0 0 0 0 0 1 0 0 5 25 60 30 17 0 9 48 39 36 9 0 0 0 0 0 0 0 0 0 0 0 375 364 236
4 5 5 3 2 0 0 0 0 0 0 0 0 0 0 0 0 0 0 0 0 1 39 7 8 27 39 45 54 35 18 0 0 0 0 0 0 0 0 4 0 5 91 195 339
1 3 5 3 0 0 0 0 0 0 0 0 0 0 0 0 1 2 15 16 0 0 30 6 23 23 63 56 65 18 6 0 0 0 0 0 0 0 0 0 3 0 73 43 159
0 4 5 0 0 0 0 0 0 0 0 0 0 0 0 0 4 0 0 18 0 7 0 0 32 0 50 34 13 14 0 0 0 0 0 0 0 0 0 0 0 0 5 25 103
0 1 2 0 0 0 0 0 0 0 0 0 0 0 0 0 0 0 0 0 7 17 0 0 11 13 0 0 4 2 0 0 0 0 0 0 0 0 0 0 0 1 1 109 200
0 0 0 0 0 0 0 0 0 0 0 0 0 0 0 0 0 0 0 0 1 2 0 2 2 0 0 0 1 0 0 0 0 0 0 0 0 0 0 0 0 0 25 121 318
0 0 0 0 0 0 0 0 0 0 1 0 0 0 0 0 0 0 0 0 0 0 0 0 0 0 0 0 0 0 0 0 0 0 0 0 0 0 0 0 0 3 9 93 259
0 0 0 0 0 0 0 0 0 1 3 3 3 12 15 0 0 0 0 0 0 0 0 0 0 0 0 0 0 0 0 0 0 0 0 0 0 0 0 0 31 191 266 228 105
0 0 0 0 0 0 0 0 0 7 17 19 51 13 31 14 11 8 0 0 0 0 0 0 1 0 0 0 0 0 0 0 0 0 0 0 0 0 0 0 0 251 410 351 154
0 0 0 0 0 0 0 0 0 2 23 24 16 25 26 29 21 15 0 0 0 6 0 0 0 0 0 0 0 0 0 0 0 0 0 0 0 0 0 0 0 0 119 352 341
0 0 0 0 0 0 0 0 0 0 3 24 46 39 18 4 10 3 33 73 1 0 0 0 0 0 0 0 0 0 0 0 0 0 0 0 0 0 35 27 0 0 0 0 5
0 0 0 0 0 0 0 0 0 0 0 31 31 47 44 31 4 1 12 31 0 0 4 0 2 0 0 0 0 0 0 0 0 0 0 0 0 0 26 11 0 0 0 0 0
0 0 0 0 0 0 0 0 0 0 0 0 13 33 9 4 31 6 1 1 0 21 190 14 0 0 0 0 0 0 0 0 0 0 0 0 0 0 92 72 16 1 0 0 0
0 0 0 0 0 0 0 0 0 0 0 0 0 0 3 23 0 0 0 0 0 0 0 0 0 2 16 24 0 0 0 0 0 0 0 0 0 117 113 189 30 123 0 31 164
0 0 0 0 0 0 0 0 0 0 0 0 0 0 4 16 7 21 0 0 0 0 0 0 14 81 4 83 2 0 0 0 0 0 0 0 0 197 1 0 1 5 67 158 255
0 0 0 0 0 0 0 0 0 0 0 0 0 0 9 0 0 0 0 0 0 0 0 0 1 0 0 3 0 0 0 0 0 0 1 29 17 0 3 3 3 3 3 2 2

GFSSW_con_sbcape_171.txt.gz
CAPE
11 6 9 9 12 14 19 18 24 21 26 20 28 32 24 9 2 0 0 0 0 0 0 0 0 0 0 0 0 0 0 0 0 0 0 0 0 0 0 0 0 120 404 627 651
6 4 12 9 5 12 16 14 12 14 11 11 20 30 18 0 0 0 0 0 0 0 0 0 0 0 0 0 0 0 0 0 0 0 0 0 0 0 0 0 7 485 549 615 905
4 3 3 5 8 6 9 11 14 8 9 6 16 24 10 0 0 0 0 1 1 0 0 0 0 0 0 0 0 0 0 0 0 0 0 0 0 0 0 0 0 19 733 866 964
12 4 10 4 3 6 6 4 8 10 6 4 6 20 0 0 0 0 0 0 0 0 0 0 0 0 0 0 0 0 0 0 0 0 0 0 0 0 0 0 221 0 122 743 1007
3 11 3 5 3 3 1 3 4 4 5 3 6 8 0 0 0 0 0 0 0 0 0 0 0 0 0 0 0 0 0 0 0 0 0 0 0 0 0 0 0 0 0 235 900
8 3 5 3 3 1 2 2 1 1 6 5 9 0 0 0 0 0 0 0 0 0 0 0 0 0 0 0 0 0 0 0 0 0 0 0 0 0 0 0 0 0 0 37 482
10 4 2 1 4 1 2 1 1 2 4 1 7 0 0 0 0 0 0 0 0 0 0 0 0 0 0 0 0 0 0 0 0 0 0 0 0 0 0 0 0 0 0 536 589
11 10 3 2 1 1 1 2 0 1 1 0 4 0 0 0 0 0 0 0 0 0 0 0 0 1 3 0 0 0 9 7 0 0 0 0 0 0 0 0 0 0 0 740 821
7 11 3 1 1 0 1 1 1 0 0 1 0 0 0 0 0 0 0 0 0 0 0 0 0 33 7 28 12 44 1 0 0 0 0 0 0 0 0 0 0 0 0 800 1066
7 9 5 1 1 0 1 0 0 1 1 0 0 0 0 0 0 0 0 0 0 0 0 0 40 40 40 43 2 2 10 0 0 0 0 0 0 0 0 0 0 0 0 732 1226
4 7 5 2 1 1 1 0 0 0 1 0 0 0 0 0 0 0 0 0 0 6 0 18 63 40 41 10 18 46 58 0 0 0 0 0 0 0 0 0 0 0 0 665 1194
2 3 7 1 1 1 0 0 0 0 0 0 0 0 0 0 0 0 0 0 0 7 0 41 52 0 36 10 41 83 80 3 0 0 0 0 0 0 0 0 0 0 86 850 1135
2 3 5 3 3 0 0 0 0 0 0 0 0 0 0 0 1 0 0 0 0 1 0 21 31 24 71 30 3 11 74 45 2 0 0 0 0 0 0 0 0 0 0 754 1074
0 0 5 1 0 0 0 0 0 0 0 0 0 0 0 0 0 0 0 2 12 1 12 9 0 0 89 43 0 12 19 49 14 0 0 0 0 0 0 0 0 0 75 839 1124
0 0 6 0 0 0 0 0 0 0 0 0 0 0 0 0 0 0 0 9 12 17 12 19 22 12 34 22 0 15 8 45 35 9 0 0 0 0 0 0 0 0 8 631 1113
0 1 1 0 0 0 0 0 0 0 0 0 0 0 0 0 0 0 0 0 24 49 15 1 27 13 9 56 33 1 0 5 0 0 0 0 0 0 0 0 0 0 0 206 852
0 0 0 0 0 0 0 0 0 0 0 0 0 0 0 2 2 0 0 0 3 22 39 28 25 41 2 7 91 90 68 71 17 0 0 0 0 0 0 0 0 0 0 185 463
0 0 0 0 0 0 0 0 0 0 4 4 0 5 34 0 0 1 0 0 0 0 19 24 13 2 6 27 17 17 44 9 1 0 0 0 0 0 0 0 0 0 0 203 641
0 0 0 0 0 0 0 0 0 0 9 15 0 2 27 15 2 15 0 0 0 0 18 36 48 0 0 4 45 17 5 0 0 0 0 0 0 0 0 0 0 0 47 171 621
0 0 0 0 0 0 0 0 0 0 7 33 16 8 10 44 15 9 3 0 8 0 1 13 71 0 0 0 0 13 4 2 13 0 0 0 0 0 0 0 34 110 81 263 672
0 0 0 0 0 0 0 0 0 0 19 39 34 11 26 18 18 19 24 37 18 7 0 0 97 1 0 5 25 0 0 0 2 0 0 0 0 0 91 168 52 0 23 370 737
0 0 0 0 0 0 0 0 0 0 0 14 22 19 51 7 6 5 5 12 0 2 85 0 56 44 7 0 9 1 0 0 0 0 0 0 0 109 182 103 77 78 25 0 346
0 0 0 0 0 0 0 0 0 0 0 0 0 13 25 2 11 13 10 3 1 2 76 184 232 15 2 0 0 0 0 0 0 0 0 0 0 0 142 156 72 94 102 11 0
0 0 0 0 0 0 2 0 0 0 0 0 0 0 0 0 3 6 18 1 0 0 5 77 109 83 47 9 0 0 1 5 8 12 0 0 0 0 103 186 150 234 160 2 0
0 0 0 0 0 0 0 0 0 2 0 0 0 0 1 15 5 9 0 0 0 1 0 0 152 162 142 128 5 0 0 0 0 0 0 0 0 209 144 133 45 100 121 2 12
0 0 0 0 0 0 0 0 0 4 4 0 0 1 2 17 24 14 14 0 2 0 0 0 9 20 29 124 95 0 0 0 0 0 0 8 10 241 21 8 0 1 39 277 281
0 0 1 0 0 0 0 0 0 10 1 1 10 10 4 0 0 0 0 0 0 1 2 1 12 88 69 7 0 0 0 0 0 0 0 6 46 170 0 3 4 3 3 4 3